Location: Home
(42.5358°N, 72.7383°W)
Time: 09:23:09
(UTC-04:00)

Kosmos-337 - Pass Details

Date: 04 July 2022
Orbit: 1467 x 1552 km, 74.0° (Epoch: 16 August)

Event Time Altitude Azimuth Distance (km) Brightness Sun altitude
Rises 02:16:37 0° 338° (NNW) 4,732 ? -22.0°
Reaches altitude 10° 02:19:36 10° 336° (NNW) 3,744 ? -21.8°
Maximum altitude 02:28:43 73° 255° (WSW) 1,600 ? -21.1°
Enters shadow 02:34:31 25° 176° (S) 2,680 ? -20.7°
